GAOFEN-5

Satellite information

Favourite Embed

Satellite Type and Status

PAYLOADIN ORBIT

Key statistics

Satellite GAOFEN-5 at a glance.

Uptime

2729

Days in orbit

Revolutions

≈ 14.6

Per day

Orbit

SSO

Sun Synchronous Orbit

Inclination

98.4

Latest

Satellite identification and parameters

Extended collection of information and parameters for GAOFEN-5.

Object identification

Identified? True

Debris? False

Object name: GAOFEN-5

International designator: 2018-043A

Object number (NORAD): 43461

Object ID (CCSDS): 43461

Country: PEOPLES REPUBLIC OF CHINA (PRC)

Current information (Y/N): Y

RCS size: LARGE

Orbital parameters

Period: 98.608 minutes

Inclination: 98.4252 deg

SMA: 7070.245 km

Apoapsis: 694.271 km

Periapsis: 689.949 km

RAAN: 262.0907 deg

Eccentricy: 0.00030566

Argument of periapsis: 84.4535 deg

Mean anomaly: 275.7014 deg

Mean motion: 14.60330105 rev/day

Mean motion (dot): 0.00000809 rev/day2

B* drag term: 0.00017747543 1/REarth

Two-line elements (TLE)

Creation date: Oct. 27, 2025, 2:46 a.m.

Reference frame: TEME

Reference center: EARTH

Epoch: Oct. 26, 2025, 10:05 p.m. UTC

TLE line 0: 0 GAOFEN-5

TLE line 1: 1 43461U 18043A 25299.92041749 .00000809 00000-0 17748-3 0 9994

TLE line 2: 2 43461 98.4252 262.0907 0003057 84.4535 275.7014 14.60330105397648

Live tracking on map

Real-time ground track for satellite GAOFEN-5.

In-orbit conjunctions

There are no conjunctions computed for GAOFEN-5, at the moment. Check back to stay up to date, as we update our databases every day.

Go to all conjunctions

Associated space launch

Gaofen is a series of civilian Earth observation satellites developed and launched for the China High-definition Earth Observation System (CHEOS), a state-sponsored programme aimed to develop a near-real time, all-weather, global surveillance network consisting of satellite, near-space (stratosphere) airships, and aerial observation platforms. Based on the SAST5000B bus, Gaofen 5 will carry six types of payloads, including visible and short-wave infra hyper-spectral camera, spectral imager, greenhouse gas detector, atmospheric environment infrared detector at very high spectral resolution, differential absorption spectrometer for atmospheric trace gas, and multi-angle polarization detector. The satellite has a designed life of 8 years. It is to be launched atop of a Long March 4C to a 705km Sun Syncronous Orbit (SSO).

GAOFEN-5 was lifted into orbit during the mission ‘Long March 4C | Gaofen 5’, on board a Long March 4C space rocket.

The launch took place on May 8, 2018, 6:28 p.m. from Launch Complex 9.

For more information about the launch, click the button.

Launch to space Long March 4C | Gaofen 5
Long March 4C | Gaofen 5

Agency: N/A

Status: Launch Successful

Launch date: May 8, 2018, 6:28 p.m. UTC

Rocket: Long March 4C

Launch pad: Launch Complex 9

Location: Taiyuan Satellite Launch Center, People's Republic of China

...

Latest news about this satellite

There are no fresh news available about this satellite. Check back as we update our databases every day.


Newsletter sign-up

Weekly statistics, charts and insights to help you stay on top of the space industry.